[[{"header":{"parameterUnit":"m.s-1","parameterCategory":1,"la1":30.2991,"la2":30.254,"lo1":-89.0895,"lo2":-89.0444,"dy":0.0017,"dx":0.0017,"nx":28,"ny":28,"refTime":"2023-10-02T21:00:00:Z","depth":0,"parameterNumber":2,"parameterNumberName":"U-component_of_WINDS"},"data":[0,0,0,0,0,0,0,0,0,0,0,0,0,0,0,0,0,0,0,0,0,0,0,0,0,0,0,0,0,0,0,0,0,0,0,0,0,0,0,0,0,0,0,0,0,0,0,0,0,0,0,0,0,0,0,0,0,0,-5.8587,-5.8588,0,-5.8618,-5.8619,-5.8619,-5.8475,-5.8471,-5.8467,-5.8463,-5.8497,-5.8502,-5.8507,0,0,0,0,0,0,0,0,0,0,0,0,0,-5.8407,-5.8411,-5.8587,-5.8588,-5.8588,-5.8618,-5.8619,-5.8619,-5.8476,-5.8471,-5.8465,-5.8461,-5.8496,-5.8501,-5.8507,0,0,0,0,0,0,0,0,0,0,0,0,0,-5.8466,-5.8412,-5.8587,-5.852,-5.8514,-5.8618,-5.8619,-5.8619,-5.8477,-5.847,-5.8464,-5.8458,-5.8494,-5.8501,-5.8508,-5.8679,0,0,-5.853,-5.8533,0,0,0,0,0,0,0,0,-5.8463,-5.8473,-5.853,-5.8525,-5.8519,-5.8536,-5.8568,-5.8639,-5.8478,-5.8491,-5.8462,-5.8455,-5.8516,-5.8521,-5.854,-5.868,-5.8682,-5.8531,-5.8535,-5.8538,-5.854,0,0,0,0,0,0,0,-5.8459,-5.8471,-5.86,-5.8531,-5.8524,-5.8489,-5.8491,-5.8581,-5.8538,-5.849,-5.8479,-5.8485,-5.8511,-5.8534,-5.854,-5.8682,-5.8531,-5.8537,-5.8541,-5.8544,-5.8965,-5.8971,0,0,0,0,0,0,-5.8464,-5.8469,-5.8599,-5.8601,-5.8475,-5.8498,-5.8499,-5.8537,-5.8537,-5.8531,-5.849,-5.8478,-5.8524,-5.8532,-5.8541,-5.874,-5.8538,-5.8545,-5.8549,-5.8958,-5.8966,-5.8974,0,0,0,0,0,0,-5.846,-5.8477,-5.8597,-5.8532,-5.8544,-5.8508,-5.8551,-5.8541,-5.8563,-5.8537,-5.8529,-5.852,-5.852,-5.8531,-5.8645,-5.8739,-5.8548,-5.8555,-5.895,-5.896,-5.897,-5.9141,0,0,0,0,0,0,-5.8456,-5.8476,-5.854,-5.8534,-5.8549,-5.8701,-5.8557,-5.8546,-5.8576,-5.856,-5.8564,-5.8558,-5.8516,-5.8635,-5.8653,-5.8746,-5.8561,-5.8941,-5.8955,-5.8967,-5.9127,-5.9156,-5.9181,0,0,0,0,0,-5.845,-5.8587,-5.8544,-5.856,-5.8627,-5.8707,-5.8715,-5.8662,-5.8584,-5.8648,-5.8632,-5.8558,-5.8727,-5.8648,-5.8667,-5.8763,-5.8935,-5.8951,-5.8966,-5.9115,-5.915,-5.918,0,0,0,0,0,0,-5.8606,-5.8585,-5.8537,-5.8677,-5.8695,-5.8682,-5.8761,-5.8701,-5.8742,-5.8726,-5.866,-5.8662,-5.8789,-5.8788,-5.8701,-5.8929,-5.8817,-5.8837,-5.8924,-5.8958,-5.8984,-5.8981,-5.8567,0,0,0,0,0,-5.8656,-5.8722,-5.8701,-5.8826,-5.8838,-5.8799,-5.8831,-5.8789,-5.8805,-5.8812,-5.8804,-5.8823,-5.888,-5.8919,-5.8971,-5.9127,-5.9125,-5.9203,-5.923,-5.9252,-5.9269,-5.9351,-5.9385,-5.9024,-5.9024,-5.9024,0,0,-5.8761,-5.8758,-5.8804,-5.8857,-5.8866,-5.8936,-5.8806,-5.8885,-5.8936,-5.8824,-5.8931,-5.8927,-5.8944,-5.9081,-5.914,-5.9084,-5.9369,-5.9271,-5.9289,-5.9294,-5.9371,-5.9405,-5.9435,-5.9034,-5.9032,-5.9031,0,0,-5.8988,-5.8993,-5.9097,-5.9109,-5.9124,-5.9097,-5.9123,-5.912,-5.9112,-5.9219,-5.9137,-5.9198,-5.9298,-5.9313,-5.9334,-5.957,-5.9503,-5.9589,-5.9728,-5.981,-5.9838,-5.9863,-5.9946,-5.9977,-5.9606,-5.9607,-5.9607,0,-5.9117,-5.9217,-5.9159,-5.9244,-5.927,-5.9172,-5.9278,-5.9293,-5.9324,-5.9345,-5.9282,-5.9405,-5.941,-5.9548,-5.9606,-5.9627,-5.9654,-5.9586,-5.9839,-5.9863,-5.9885,-5.9964,-5.9995,-5.9617,-5.9616,-5.9615,-5.9614,0,-5.9375,-5.9446,-5.9529,-5.9561,-5.9597,-5.9693,-5.9649,-5.9693,-5.9649,-5.963,-5.974,-5.9743,-5.9793,-5.9823,-5.9781,-5.9957,-5.9921,-5.985,-5.9735,-5.9931,-6.0003,-6.0033,-5.9631,-5.9628,-5.9625,-5.9622,0,0,-5.9697,-5.9697,-5.9728,-5.9742,-5.9752,-5.9807,-5.9899,-5.9947,-5.9985,-6.0012,-6.0087,-6.0175,-6.0108,-6.0133,-6.0092,-6.0164,-6.0349,-6.0083,-6.0082,-6.0131,-6.0542,-6.0594,-6.063,-6.0306,-6.0312,-6.0316,-6.054,0,-5.9918,-6.0073,-6.0024,-6.0181,-6.0246,-6.0155,-6.0235,-6.0251,-6.0236,-6.0291,-6.0274,-6.0337,-6.0246,-6.026,-6.0327,-6.0312,-6.043,-6.0296,-6.0375,-6.0379,-6.0372,-6.0667,-6.0723,-6.0933,-6.0568,-6.0573,-6.0576,0,-6.0195,-6.0232,-6.0395,-6.0395,-6.042,-6.0493,-6.0533,-6.0587,-6.0603,-6.0588,-6.0616,-6.0561,-6.0652,-6.054,-6.0664,-6.0574,-6.0604,-6.0602,-6.0609,-6.0613,-6.0488,-6.0678,-6.0999,-6.103,-6.062,-6.0617,-6.0614,0,-6.0413,-6.0503,-6.0612,-6.0627,-6.063,-6.0683,-6.0687,-6.0697,-6.073,-6.0766,-6.0786,-6.0834,-6.086,-6.0898,-6.0858,-6.078,-6.0988,-6.0873,-6.0978,-6.0979,-6.1023,-6.1021,-6.1353,-6.1047,-6.1047,-6.1046,-6.1045,0,-6.0663,-6.0766,-6.071,-6.0777,-6.089,-6.0834,-6.0948,-6.0942,-6.0953,-6.1017,-6.0943,-6.1006,-6.095,-6.1008,-6.0977,-6.1085,-6.1098,-6.1088,-6.1078,-6.1093,-6.1094,-6.111,-6.1094,-6.1054,-6.1053,-6.1051,-6.1049,0,-6.0924,-6.089,-6.1003,-6.0997,-6.0998,-6.1082,-6.1077,-6.1139,-6.112,-6.1203,-6.1219,-6.1189,-6.1254,-6.1218,-6.1285,-6.1265,-6.1404,-6.1375,-6.1398,-6.1389,-6.1496,-6.1486,-6.1848,-6.1892,-6.156,-6.1563,-6.1566,0,-6.1084,-6.1161,-6.1164,-6.1202,-6.121,-6.1272,-6.1305,-6.1254,-6.1291,-6.1317,-6.1377,-6.1435,-6.1478,-6.1587,-6.1572,-6.1623,-6.1594,-6.1717,-6.1601,-6.1614,-6.1594,-6.1589,-6.1596,-6.174,-6.1744,-6.1747,-6.175,0,-6.1373,-6.1353,-6.1402,-6.1447,-6.1488,-6.1521,-6.1547,-6.1583,-6.1533,-6.1579,-6.1643,-6.1678,-6.1746,-6.1805,-6.1849,-6.1854,-6.1794,-6.1787,-6.1813,-6.1828,-6.1838,-6.1833,-6.146,-6.1778,-6.1775,-6.1773,-6.1772,-6.177,-6.1587,-6.1651,-6.1663,-6.1721,-6.1736,-6.1763,-6.1821,-6.1809,-6.1862,-6.1913,-6.1881,-6.1957,-6.1973,-6.2026,-6.204,-6.2099,-6.205,-6.2089,-6.2098,-6.2108,-6.2122,-6.1831,-6.2108,-6.2107,-6.2106,-6.2105,-6.2105,0,-6.1869,-6.1873,-6.1927,-6.1967,-6.2013,-6.1953,-6.198,-6.2023,-6.209,-6.211,-6.2155,-6.223,-6.2288,-6.2278,-6.233,-6.238,-6.2354,-6.2395,-6.239,-6.2392,-6.2164,-6.2135,-6.2416,-6.2416,-6.2416,-6.2416,-6.2415,-6.2415,-6.2022,-6.2127,-6.2109,-6.2222,-6.2224,-6.2298,-6.2319,-6.2344,-6.2359,-6.2446,-6.2493,-6.2486,-6.2495,-6.2547,-6.2598,-6.2594,-6.2616,-6.2667,-6.2653,-6.2439,-6.2408,-6.2379,-6.2351,-6.2673,-6.2673,-6.2876,-6.2878,-6.2879]},{"header":{"parameterUnit":"m.s-1","parameterCategory":1,"la1":30.2991,"la2":30.254,"lo1":-89.0895,"lo2":-89.0444,"dy":0.0017,"dx":0.0017,"nx":28,"ny":28,"refTime":"2023-10-02T21:00:00:Z","depth":0,"parameterNumber":3,"parameterNumberName":"V-component_of_WINDS"},"data":[0,0,0,0,0,0,0,0,0,0,0,0,0,0,0,0,0,0,0,0,0,0,0,0,0,0,0,0,0,0,0,0,0,0,0,0,0,0,0,0,0,0,0,0,0,0,0,0,0,0,0,0,0,0,0,0,0,0,1.1101,1.1102,0,1.1195,1.1196,1.1197,1.1288,1.1289,1.1291,1.1292,1.1382,1.1384,1.1385,0,0,0,0,0,0,0,0,0,0,0,0,0,1.0995,1.0997,1.1101,1.1102,1.1103,1.1195,1.1196,1.1197,1.1288,1.1289,1.1291,1.1292,1.1382,1.1383,1.1385,0,0,0,0,0,0,0,0,0,0,0,0,0,1.106,1.0997,1.11,1.1159,1.1166,1.1195,1.1196,1.1198,1.1288,1.1289,1.1291,1.1293,1.1381,1.1383,1.1385,1.1362,0,0,1.1391,1.1392,0,0,0,0,0,0,0,0,1.1056,1.1064,1.1149,1.1155,1.1162,1.1232,1.1192,1.1253,1.1287,1.1241,1.1292,1.1294,1.133,1.1337,1.135,1.1366,1.137,1.1391,1.1393,1.1393,1.1394,0,0,0,0,0,0,0,1.1052,1.106,1.1138,1.1151,1.1158,1.118,1.1191,1.1204,1.1274,1.1245,1.1252,1.1262,1.1334,1.1348,1.1353,1.1371,1.1391,1.1393,1.1394,1.1395,1.1375,1.1373,0,0,0,0,0,0,1.1039,1.1056,1.1135,1.1141,1.1113,1.118,1.1193,1.1208,1.1275,1.1287,1.1261,1.1266,1.1344,1.1351,1.1357,1.1335,1.1393,1.1395,1.1396,1.1376,1.1374,1.1373,0,0,0,0,0,0,1.1036,1.1045,1.1131,1.11,1.1113,1.118,1.1196,1.1208,1.1223,1.1286,1.1299,1.1262,1.1346,1.1354,1.1361,1.1339,1.1396,1.1398,1.1379,1.1376,1.1373,1.129,0,0,0,0,0,0,1.1033,1.1044,1.1036,1.11,1.1114,1.1134,1.1195,1.1209,1.1226,1.1235,1.1291,1.1302,1.1348,1.1357,1.1363,1.1343,1.1399,1.1381,1.1377,1.1374,1.1295,1.1285,1.1276,0,0,0,0,0,1.1029,1.1007,1.1035,1.1044,1.1106,1.1133,1.1141,1.1196,1.1224,1.1217,1.1258,1.13,1.1341,1.1357,1.1364,1.1344,1.1382,1.1378,1.1375,1.1299,1.1287,1.1277,0,0,0,0,0,0,1.0936,1.1016,1.1048,1.1046,1.1083,1.1148,1.114,1.118,1.1207,1.1213,1.1278,1.129,1.129,1.1318,1.1335,1.1327,1.1368,1.1365,1.1308,1.1297,1.1288,1.128,1.1401,0,0,0,0,0,1.0916,1.0932,1.1001,1.0992,1.1009,1.1071,1.1085,1.1124,1.1163,1.1178,1.122,1.1255,1.1276,1.1288,1.1311,1.13,1.1314,1.129,1.1281,1.1273,1.1269,1.1267,1.1258,1.136,1.136,1.136,0,0,1.0873,1.0919,1.0925,1.0975,1.1008,1.1022,1.1083,1.1096,1.1107,1.118,1.119,1.1222,1.1265,1.1263,1.1265,1.1287,1.1245,1.1268,1.1261,1.1262,1.1262,1.1253,1.1244,1.1357,1.1358,1.1358,0,0,1.0803,1.0839,1.0838,1.087,1.092,1.0962,1.0961,1.1022,1.1047,1.1059,1.1114,1.1128,1.1162,1.1191,1.121,1.1155,1.1195,1.1161,1.1111,1.1108,1.11,1.1094,1.1074,1.1066,1.1157,1.1157,1.1157,0,1.0743,1.0769,1.0831,1.0841,1.0862,1.0932,1.093,1.0958,1.1011,1.1023,1.1048,1.1095,1.1128,1.1135,1.1122,1.1135,1.1137,1.1154,1.1097,1.1091,1.1085,1.1067,1.106,1.1153,1.1153,1.1154,1.1154,0,1.0693,1.071,1.0703,1.0756,1.0776,1.0779,1.0842,1.0854,1.0893,1.0932,1.0943,1.0987,1.1021,1.1026,1.1062,1.1038,1.1051,1.1085,1.1128,1.107,1.1054,1.1048,1.1146,1.1148,1.1149,1.115,0,0,1.0564,1.0655,1.0651,1.0677,1.0738,1.0752,1.076,1.0795,1.0805,1.084,1.0848,1.0877,1.0911,1.0932,1.0973,1.097,1.0925,1.1006,1.1008,1.0989,1.0902,1.0876,1.0867,1.0952,1.0951,1.0951,1.0899,0,1.0505,1.0525,1.0582,1.0583,1.06,1.0668,1.0675,1.0713,1.0751,1.077,1.0811,1.0831,1.0873,1.0887,1.0888,1.093,1.0908,1.0935,1.0959,1.0959,1.0946,1.0859,1.083,1.0779,1.0893,1.0892,1.0891,0,1.0437,1.0471,1.0475,1.0539,1.0548,1.0553,1.0591,1.0609,1.0654,1.0681,1.0707,1.0754,1.0765,1.0805,1.0822,1.0838,1.0852,1.0875,1.0874,1.0878,1.0921,1.086,1.0764,1.0756,1.0882,1.0883,1.0884,0,1.0344,1.039,1.0399,1.0419,1.0493,1.0495,1.0526,1.0573,1.0591,1.0624,1.0637,1.067,1.0687,1.0712,1.0766,1.079,1.0776,1.0821,1.0799,1.0797,1.0791,1.0791,1.0696,1.0801,1.0801,1.0801,1.0801,0,1.0271,1.027,1.0359,1.0364,1.0366,1.0432,1.0432,1.0469,1.051,1.0523,1.0584,1.0594,1.0665,1.0684,1.0726,1.0734,1.0741,1.0763,1.0774,1.0758,1.0755,1.0767,1.0771,1.0799,1.0799,1.08,1.08,0,1.0165,1.0225,1.0239,1.031,1.0327,1.0325,1.0385,1.0392,1.0435,1.0451,1.0459,1.0525,1.055,1.0607,1.0647,1.0675,1.0672,1.0692,1.0657,1.0664,1.0639,1.0641,1.0549,1.054,1.0649,1.0648,1.0647,0,1.0115,1.0117,1.0188,1.0203,1.0232,1.0254,1.0274,1.034,1.0358,1.0411,1.0412,1.0443,1.0471,1.0508,1.0559,1.059,1.0612,1.0577,1.0616,1.06,1.0611,1.061,1.0611,1.0568,1.0566,1.0565,1.0564,0,1.0019,1.0049,1.0077,1.0115,1.0139,1.0172,1.0208,1.0215,1.029,1.0307,1.0336,1.0358,1.04,1.043,1.047,1.05,1.0544,1.0552,1.0549,1.0531,1.0511,1.0522,1.0634,1.0553,1.0554,1.0555,1.0556,1.0556,0.994,0.9946,0.9998,1.0027,1.0062,1.0095,1.0106,1.0152,1.0177,1.0219,1.0256,1.0281,1.0327,1.0385,1.0413,1.0433,1.0455,1.045,1.0448,1.0446,1.0439,1.0509,1.044,1.0441,1.0441,1.0441,1.0442,0,0.9847,0.9885,0.9912,0.9962,0.9985,1.0028,1.0071,1.0087,1.0109,1.015,1.0177,1.0211,1.0241,1.0295,1.0329,1.0335,1.0356,1.0342,1.0341,1.0348,1.0417,1.0417,1.0324,1.0324,1.0324,1.0324,1.0324,1.0324,0.9802,0.9815,0.9851,0.9882,0.9919,0.9946,0.9967,0.9998,1.0031,1.0066,1.0092,1.0129,1.0175,1.0214,1.0243,1.0258,1.0268,1.0247,1.0268,1.0332,1.0343,1.0353,1.0353,1.0249,1.0249,1.0198,1.0197,1.0197]}]]